Location: Hawks Ness
(60.2333°N, 1.1667°W)
Time: 14:31:48
(UTC+00:00)

Cosmos 1606 Rocket - Pass Details

Date: 22 October 2019
Orbit: 603 x 632 km, 82.5° (Epoch: 19 November)

Event Time Altitude Azimuth Distance (km) Brightness Sun altitude
Rises 04:46:38 0° 343° (NNW) 2,875 6.9 -17.2°
Reaches altitude 10° 04:48:57 10° 336° (NNW) 1,965 6.0 -17.0°
Maximum altitude 04:53:00 40° 267° (W) 902 3.9 -16.5°
Drops below altitude 10° 04:57:02 10° 198° (SSW) 1,953 5.9 -16.0°
Sets 04:59:19 0° 191° (S) 2,855 6.8 -15.7°
